[[{"header":{"parameterUnit":"m.s-1","parameterCategory":2,"la1":30.2992,"la2":30.254,"lo1":-89.0895,"lo2":-89.0443,"dy":0.0025,"dx":0.0025,"nx":19,"ny":19,"refTime":"2026-05-10T21:00:00:Z","depth":"0","parameterNumber":2,"parameterNumberName":"U-component_of_CURRENTS"},"data":[0,0,0,-0.2478,-0.2477,-0.2416,-0.2416,-0.2382,-0.2381,0,0,0,0,0,0,0,0,0,0,0,-0.2502,-0.2502,-0.2478,-0.2476,-0.2416,-0.2416,-0.2382,-0.2381,0,0,0,0,0,0,0,0,0,0,0,-0.2503,-0.2502,-0.2501,-0.2476,-0.2416,-0.2416,-0.2382,-0.242,0,0,0,0,0,0,0,0,0,0,-0.2474,-0.2494,-0.2502,-0.2501,-0.2476,-0.2416,-0.2416,-0.2421,-0.2417,-0.2417,0,-0.2398,0,-0.2382,-0.2379,-0.2379,0,0,0,-0.2489,-0.2497,-0.2469,-0.2501,-0.2475,-0.2416,-0.2447,-0.2419,-0.2415,-0.2412,-0.2397,-0.2396,-0.2382,-0.2379,-0.2379,-0.2369,-0.2369,0,0,-0.2492,-0.2505,-0.2472,-0.2466,-0.2447,-0.2449,-0.2445,-0.2416,-0.2414,-0.2397,-0.2395,-0.2381,-0.2379,-0.2378,-0.2369,-0.2369,0,0,0,-0.2493,-0.2508,-0.2481,-0.2468,-0.245,-0.2447,-0.2442,-0.2416,-0.2403,-0.2394,-0.2381,-0.2378,-0.2378,-0.2368,-0.2369,-0.2407,0,0,0,-0.2496,-0.2507,-0.2482,-0.2491,-0.2449,-0.2427,-0.2443,-0.2405,-0.2401,-0.2381,-0.2378,-0.2377,-0.2368,-0.2368,-0.2405,-0.2432,0,0,0,-0.2507,-0.2509,-0.2495,-0.2492,-0.2458,-0.2427,-0.2413,-0.2404,-0.2392,-0.2379,-0.2377,-0.2368,-0.2368,-0.2404,-0.2429,-0.2451,0,0,0,-0.2533,-0.2507,-0.2496,-0.2479,-0.2458,-0.2438,-0.2414,-0.2409,-0.2402,-0.2378,-0.2368,-0.2369,-0.2403,-0.2428,-0.2449,-0.2533,-0.2547,0,0,-0.2515,-0.2505,-0.25,-0.2488,-0.2477,-0.2448,-0.2449,-0.2431,-0.2407,-0.2382,-0.2382,-0.2406,-0.2429,-0.245,-0.2556,-0.257,0,0,0,-0.2505,-0.2496,-0.2495,-0.2486,-0.2472,-0.2473,-0.2444,-0.2436,-0.2422,-0.2399,-0.2403,-0.2417,-0.2429,-0.2476,-0.2487,-0.2512,-0.237,-0.237,-0.237,-0.2473,-0.2486,-0.2495,-0.2503,-0.25,-0.2491,-0.2493,-0.2473,-0.2443,-0.2446,-0.2446,-0.2486,-0.2537,-0.2546,-0.257,-0.2437,-0.2437,-0.2438,-0.2438,-0.247,-0.2476,-0.2515,-0.2531,-0.2542,-0.2541,-0.2532,-0.2517,-0.2511,-0.248,-0.2489,-0.2511,-0.256,-0.2582,-0.244,-0.244,-0.2439,-0.2439,-0.2439,-0.2449,-0.2458,-0.2492,-0.2542,-0.2571,-0.2576,-0.2607,-0.2582,-0.2553,-0.2563,-0.2604,-0.2604,-0.2625,-0.2563,-0.2563,-0.2563,-0.2564,-0.2564,-0.2564,-0.2411,-0.245,-0.2492,-0.2545,-0.2586,-0.2621,-0.2644,-0.2656,-0.2672,-0.2662,-0.2662,-0.2653,-0.2524,-0.2522,-0.2567,-0.2567,-0.2566,-0.2566,-0.2566,-0.2373,-0.239,-0.2471,-0.2525,-0.2631,-0.2671,-0.272,-0.2796,-0.2801,-0.2826,-0.2811,-0.2712,-0.2709,-0.2701,-0.2702,-0.2792,-0.2792,-0.2792,-0.2792,-0.2331,-0.2349,-0.247,-0.2574,-0.2666,-0.2705,-0.2802,-0.2894,-0.2948,-0.2962,-0.2916,-0.291,-0.29,-0.2906,-0.2893,-0.2897,-0.3033,-0.3034,-0.3034,-0.2314,-0.2369,-0.2448,-0.2572,-0.2695,-0.2736,-0.2802,-0.2911,-0.3014,-0.3041,-0.2935,-0.2925,-0.2908,-0.289,-0.289,-0.2869,-0.2872,0,0]},{"header":{"parameterUnit":"m.s-1","parameterCategory":2,"la1":30.2992,"la2":30.254,"lo1":-89.0895,"lo2":-89.0443,"dy":0.0025,"dx":0.0025,"nx":19,"ny":19,"refTime":"2026-05-10T21:00:00:Z","depth":"0","parameterNumber":3,"parameterNumberName":"V-component_of_CURRENTS"},"data":[0,0,0,-0.0786,-0.0784,-0.0673,-0.0673,-0.0537,-0.0536,0,0,0,0,0,0,0,0,0,0,0,-0.0823,-0.0822,-0.0786,-0.0784,-0.0673,-0.0673,-0.0537,-0.0536,0,0,0,0,0,0,0,0,0,0,0,-0.0823,-0.0823,-0.0822,-0.0783,-0.0674,-0.0673,-0.0537,-0.0616,0,0,0,0,0,0,0,0,0,0,-0.0721,-0.0765,-0.0823,-0.0822,-0.0783,-0.0674,-0.0673,-0.062,-0.0611,-0.0593,0,-0.0582,0,-0.0562,-0.0528,-0.0528,0,0,0,-0.0769,-0.0772,-0.074,-0.0822,-0.0782,-0.0674,-0.0719,-0.0615,-0.0605,-0.0582,-0.058,-0.0575,-0.056,-0.0528,-0.0527,-0.0411,-0.0411,0,0,-0.0776,-0.0802,-0.0747,-0.0734,-0.0761,-0.0723,-0.0716,-0.0609,-0.0604,-0.058,-0.0572,-0.0558,-0.0527,-0.0526,-0.0411,-0.0411,0,0,0,-0.0803,-0.0806,-0.0776,-0.074,-0.0723,-0.072,-0.0712,-0.0608,-0.0598,-0.057,-0.0556,-0.0526,-0.0525,-0.0412,-0.0411,-0.0426,0,0,0,-0.0806,-0.0823,-0.0779,-0.0793,-0.0725,-0.0665,-0.0715,-0.0605,-0.0592,-0.0557,-0.0526,-0.0524,-0.0412,-0.0411,-0.0426,-0.0448,0,0,0,-0.0827,-0.0825,-0.0814,-0.0795,-0.0753,-0.0666,-0.0649,-0.0602,-0.0585,-0.0528,-0.0523,-0.0413,-0.0412,-0.0427,-0.0448,-0.0451,0,0,0,-0.0853,-0.0846,-0.0815,-0.08,-0.0754,-0.0679,-0.0649,-0.0586,-0.0539,-0.0526,-0.0412,-0.0411,-0.0427,-0.0448,-0.0451,-0.051,-0.0514,0,0,-0.086,-0.0847,-0.0838,-0.0807,-0.0753,-0.0692,-0.0618,-0.0547,-0.0517,-0.0447,-0.0443,-0.0426,-0.0448,-0.0451,-0.0453,-0.046,0,0,0,-0.085,-0.0841,-0.0819,-0.0781,-0.0719,-0.0644,-0.0565,-0.0527,-0.0457,-0.0486,-0.0402,-0.0415,-0.0417,-0.0451,-0.0456,-0.0243,-0.0407,-0.0407,-0.0407,-0.0876,-0.0845,-0.082,-0.0762,-0.0707,-0.0599,-0.054,-0.0471,-0.044,-0.0411,-0.0408,-0.0397,-0.0432,-0.0436,-0.0215,-0.0378,-0.0378,-0.0378,-0.0379,-0.0896,-0.0889,-0.0828,-0.08,-0.071,-0.064,-0.0511,-0.0473,-0.0404,-0.0389,-0.039,-0.0442,-0.0443,-0.0205,-0.0379,-0.0379,-0.0379,-0.0379,-0.0379,-0.0923,-0.092,-0.0902,-0.0864,-0.0789,-0.0678,-0.0625,-0.0521,-0.0438,-0.042,-0.0457,-0.0458,-0.0266,-0.0423,-0.0423,-0.0423,-0.0423,-0.0423,-0.0423,-0.0981,-0.0958,-0.0984,-0.0929,-0.0915,-0.0846,-0.0699,-0.0645,-0.0546,-0.0484,-0.0484,-0.0229,-0.0411,-0.043,-0.0424,-0.0424,-0.0424,-0.0424,-0.0424,-0.1055,-0.1049,-0.1101,-0.1112,-0.1079,-0.1069,-0.0916,-0.0791,-0.0697,-0.0663,-0.0286,-0.0509,-0.0515,-0.0511,-0.0531,-0.0552,-0.0552,-0.0552,-0.0552,-0.1121,-0.1114,-0.1231,-0.1284,-0.1277,-0.1184,-0.115,-0.0945,-0.0561,-0.0335,-0.0213,-0.0174,-0.0179,-0.0159,-0.0163,-0.0174,-0.0104,-0.0103,-0.0102,-0.1199,-0.1224,-0.1341,-0.138,-0.1383,-0.1323,-0.1274,-0.0952,-0.0335,-0.0055,0.0104,0.0084,0.0173,0.0148,0.02,0.0177,0.0165,0,0]}],[{"header":{"parameterUnit":"m.s-1","parameterCategory":2,"la1":30.2992,"la2":30.254,"lo1":-89.0895,"lo2":-89.0443,"dy":0.0025,"dx":0.0025,"nx":19,"ny":19,"refTime":"2026-05-10T21:00:00:Z","depth":"2","parameterNumber":2,"parameterNumberName":"U-component_of_CURRENTS"},"data":[0,0,0,-0.0848,-0.0851,-0.1009,-0.101,-0.1082,-0.1082,0,0,0,0,0,0,0,0,0,0,0,-0.0791,-0.0791,-0.0848,-0.0851,-0.1009,-0.101,-0.1082,-0.1082,0,0,0,0,0,0,0,0,0,0,0,-0.079,-0.0791,-0.0792,-0.0852,-0.1009,-0.101,-0.1082,-0.0997,0,0,0,0,0,0,0,0,0,0,-0.0861,-0.0844,-0.0791,-0.0792,-0.0853,-0.1009,-0.101,-0.0995,-0.1002,-0.097,0,-0.0992,0,-0.1032,-0.1083,-0.1083,0,0,0,-0.0862,-0.0838,-0.0858,-0.0792,-0.0854,-0.1008,-0.0941,-0.1,-0.1009,-0.0979,-0.0994,-0.0998,-0.1033,-0.1083,-0.1083,-0.1122,-0.1122,0,0,-0.0853,-0.0841,-0.0852,-0.0863,-0.0889,-0.0936,-0.0945,-0.1007,-0.1023,-0.0994,-0.1,-0.1035,-0.1083,-0.1083,-0.1121,-0.1122,0,0,0,-0.0821,-0.0834,-0.0856,-0.0859,-0.0895,-0.094,-0.0951,-0.1021,-0.1022,-0.1001,-0.1035,-0.1083,-0.1083,-0.1121,-0.1122,-0.1238,0,0,0,-0.0816,-0.0815,-0.0852,-0.085,-0.0894,-0.0983,-0.0964,-0.1018,-0.1027,-0.1035,-0.1083,-0.1083,-0.1121,-0.1121,-0.1234,-0.1216,0,0,0,-0.0784,-0.0813,-0.0824,-0.0848,-0.091,-0.0983,-0.0991,-0.1022,-0.1046,-0.1083,-0.1083,-0.112,-0.1121,-0.1231,-0.1212,-0.1266,0,0,0,-0.0775,-0.0831,-0.0824,-0.0904,-0.0908,-0.1016,-0.0992,-0.1078,-0.1118,-0.1083,-0.1121,-0.1122,-0.123,-0.1209,-0.1264,-0.1401,-0.1426,0,0,-0.0843,-0.0839,-0.0888,-0.0885,-0.0983,-0.0995,-0.1111,-0.1145,-0.111,-0.1092,-0.1094,-0.1236,-0.1211,-0.1266,-0.1445,-0.1469,0,0,0,-0.0908,-0.0925,-0.0961,-0.1013,-0.1077,-0.1127,-0.1182,-0.1187,-0.121,-0.1134,-0.1218,-0.1197,-0.1229,-0.1306,-0.1325,-0.1125,-0.1125,-0.1125,-0.1125,-0.094,-0.0976,-0.1044,-0.1091,-0.1152,-0.1228,-0.1265,-0.1264,-0.1272,-0.1289,-0.1284,-0.1379,-0.1464,-0.1479,-0.1308,-0.1308,-0.1309,-0.1309,-0.1309,-0.1033,-0.1049,-0.1084,-0.1167,-0.1194,-0.1278,-0.1322,-0.1346,-0.139,-0.1357,-0.1387,-0.1411,-0.1507,-0.1318,-0.1316,-0.1315,-0.1314,-0.1314,-0.1313,-0.1053,-0.1047,-0.1128,-0.1213,-0.1239,-0.1297,-0.1374,-0.1408,-0.1433,-0.1473,-0.1573,-0.1573,-0.1433,-0.1534,-0.1534,-0.1535,-0.1535,-0.1535,-0.1535,-0.1023,-0.1088,-0.1184,-0.1242,-0.1242,-0.1314,-0.1414,-0.1493,-0.1616,-0.1651,-0.1654,-0.1453,-0.1446,-0.1443,-0.1538,-0.1538,-0.1537,-0.1537,-0.1537,-0.1002,-0.1095,-0.1211,-0.1253,-0.1297,-0.1367,-0.1486,-0.1752,-0.1822,-0.191,-0.176,-0.1753,-0.1713,-0.1699,-0.17,-0.1856,-0.1856,-0.1856,-0.1856,-0.0975,-0.1037,-0.1203,-0.1279,-0.134,-0.1393,-0.1621,-0.165,-0.1734,-0.163,-0.1637,-0.1612,-0.161,-0.1557,-0.1545,-0.1539,-0.1653,-0.1651,-0.165,-0.0963,-0.1037,-0.1121,-0.1281,-0.133,-0.1476,-0.1598,-0.157,-0.1537,-0.1616,-0.134,-0.1893,-0.1883,-0.1867,-0.1802,-0.1778,-0.1775,0,0]},{"header":{"parameterUnit":"m.s-1","parameterCategory":2,"la1":30.2992,"la2":30.254,"lo1":-89.0895,"lo2":-89.0443,"dy":0.0025,"dx":0.0025,"nx":19,"ny":19,"refTime":"2026-05-10T21:00:00:Z","depth":"2","parameterNumber":3,"parameterNumberName":"V-component_of_CURRENTS"},"data":[0,0,0,0.0002,0.0,-0.0075,-0.0075,-0.0014,-0.0013,0,0,0,0,0,0,0,0,0,0,0,0.0049,0.0049,0.0003,-0.0,-0.0075,-0.0075,-0.0014,-0.0013,0,0,0,0,0,0,0,0,0,0,0,0.0049,0.0049,0.0048,-0.0001,-0.0075,-0.0075,-0.0014,0.0009,0,0,0,0,0,0,0,0,0,0,0.0064,0.0057,0.0049,0.0048,-0.0001,-0.0075,-0.0075,0.0008,0.0007,0.0058,0,0.0041,0,0.0,-0.0007,-0.0007,0,0,0,0.0021,0.0057,0.005,0.0048,-0.0002,-0.0075,-0.0035,0.0007,0.0006,0.0057,0.0041,0.0042,0.0001,-0.0007,-0.0006,0.0066,0.0066,0,0,0.0026,0.0028,0.005,0.0049,-0.0025,-0.0033,-0.0038,0.0005,-0.0001,0.0041,0.0042,0.0002,-0.0006,-0.0006,0.0066,0.0066,0,0,0,0.0023,0.0031,0.002,0.0048,0.0013,-0.0035,-0.0041,-0.0003,-0.0004,0.0042,0.0003,-0.0006,-0.0005,0.0066,0.0066,0.0031,0,0,0,0.0026,0.0028,0.0022,0.0021,0.0011,-0.0025,-0.0049,-0.0006,-0.0004,0.0003,-0.0006,-0.0004,0.0065,0.0066,0.0031,-0.0,0,0,0,0.0053,0.003,0.0023,0.0022,-0.0022,-0.0027,-0.0026,-0.0007,-0.0028,-0.0007,-0.0004,0.0065,0.0066,0.0032,0.0002,0.0007,0,0,0,0.0058,0.0016,0.0023,-0.003,-0.0021,-0.005,-0.0027,-0.0038,-0.0023,-0.0005,0.0065,0.0066,0.0032,0.0003,0.0008,0.0054,0.0054,0,0,0.0005,0.0009,-0.0019,-0.0016,-0.0067,-0.0038,-0.0059,-0.0027,0.0005,0.0066,0.0067,0.0031,0.0002,0.0007,0.0076,0.0076,0,0,0,-0.0036,-0.0057,-0.0069,-0.0099,-0.0101,-0.0096,-0.0068,-0.0034,0.0011,0.0008,0.0049,0.0031,0.0036,0.0066,0.0066,0.0068,0.0068,0.0067,0.0067,-0.0118,-0.0113,-0.0157,-0.015,-0.0152,-0.0121,-0.0097,-0.0038,0.0003,0.0024,0.0016,0.0012,0.0046,0.0046,0.0042,0.0041,0.0041,0.0041,0.0041,-0.0219,-0.0237,-0.0215,-0.0254,-0.0209,-0.0201,-0.0119,-0.008,-0.0018,0.0009,0.0016,0.0044,0.0043,0.0039,0.0039,0.0039,0.004,0.004,0.004,-0.0282,-0.0279,-0.0306,-0.0335,-0.0314,-0.0258,-0.0232,-0.0152,-0.0067,-0.0054,0.0006,0.0008,-0.0019,-0.004,-0.004,-0.004,-0.004,-0.004,-0.004,-0.0326,-0.0346,-0.041,-0.0415,-0.0412,-0.0391,-0.0296,-0.0245,-0.0118,-0.0034,-0.0033,-0.0014,-0.0012,-0.0022,-0.0042,-0.0041,-0.0041,-0.0041,-0.0041,-0.0388,-0.0425,-0.0519,-0.0548,-0.0547,-0.0552,-0.0436,-0.0282,-0.019,-0.0116,-0.0007,-0.0007,0.0009,0.0011,0.0002,-0.001,-0.001,-0.001,-0.001,-0.044,-0.0462,-0.0625,-0.069,-0.0695,-0.0635,-0.0587,-0.0408,-0.0175,-0.0054,-0.0052,-0.0031,-0.003,-0.0015,-0.0013,-0.0021,-0.004,-0.0041,-0.0041,-0.0502,-0.0552,-0.0681,-0.0766,-0.0765,-0.0737,-0.07,-0.0492,-0.0149,-0.0048,-0.0122,0.0,0.0039,0.0037,0.0068,0.0068,0.0058,0,0]}],[{"header":{"parameterUnit":"m.s-1","parameterCategory":2,"la1":30.2992,"la2":30.254,"lo1":-89.0895,"lo2":-89.0443,"dy":0.0025,"dx":0.0025,"nx":19,"ny":19,"refTime":"2026-05-10T21:00:00:Z","depth":"4","parameterNumber":2,"parameterNumberName":"U-component_of_CURRENTS"},"data":[0,0,0,-0.0771,-0.0776,-0.1051,-0.1052,-0.1345,-0.1348,0,0,0,0,0,0,0,0,0,0,0,-0.0725,-0.0728,-0.077,-0.0777,-0.1051,-0.1052,-0.1345,-0.1348,0,0,0,0,0,0,0,0,0,0,0,-0.0724,-0.0727,-0.0731,-0.0777,-0.105,-0.1052,-0.1344,-0.1155,0,0,0,0,0,0,0,0,0,0,-0.0897,-0.0854,-0.0726,-0.0731,-0.0779,-0.105,-0.1052,-0.1147,-0.1167,-0.12,0,-0.1283,0,-0.1295,-0.1364,-0.1365,0,0,0,-0.0792,-0.0838,-0.0906,-0.0732,-0.0781,-0.105,-0.0931,-0.1159,-0.1181,-0.1226,-0.1287,-0.1297,-0.13,-0.1366,-0.1367,-0.1574,-0.1574,0,0,-0.0776,-0.0771,-0.0891,-0.0922,-0.0905,-0.0922,-0.0939,-0.1173,-0.122,-0.1288,-0.1303,-0.1304,-0.1368,-0.137,-0.1574,-0.1574,0,0,0,-0.0723,-0.0761,-0.0826,-0.0911,-0.0951,-0.093,-0.095,-0.1211,-0.1234,-0.1306,-0.1308,-0.1369,-0.1372,-0.1573,-0.1574,-0.1485,0,0,0,-0.0714,-0.0728,-0.082,-0.0819,-0.0948,-0.1089,-0.0983,-0.1219,-0.1244,-0.1306,-0.1369,-0.1375,-0.1573,-0.1574,-0.1487,-0.1481,0,0,0,-0.0703,-0.0725,-0.0772,-0.0818,-0.0923,-0.1085,-0.1123,-0.1226,-0.1243,-0.1366,-0.1375,-0.1573,-0.1573,-0.1488,-0.1483,-0.149,0,0,0,-0.0663,-0.0721,-0.0775,-0.0859,-0.0921,-0.1065,-0.1121,-0.1245,-0.1348,-0.1371,-0.1573,-0.1574,-0.1488,-0.1484,-0.149,-0.1246,0,0,0,-0.0683,-0.0724,-0.0768,-0.082,-0.0898,-0.1024,-0.1155,-0.1309,-0.1368,-0.1494,-0.15,-0.1486,-0.1483,-0.149,-0.1302,0,0,0,0,-0.0737,-0.0781,-0.0812,-0.0901,-0.1003,-0.1136,-0.1291,-0.1335,-0.1436,-0.1433,-0.1529,-0.1532,-0.1538,-0.14,-0.1578,-0.1578,-0.1578,-0.1578,-0.1578,-0.0737,-0.079,-0.0851,-0.0953,-0.1075,-0.1231,-0.1322,-0.1428,-0.1466,-0.148,-0.1489,-0.1481,-0.1332,-0.1509,-0.1508,-0.1508,-0.1508,-0.1507,-0.1507,-0.0731,-0.0759,-0.0886,-0.0965,-0.1116,-0.1267,-0.1399,-0.1418,-0.1469,-0.1478,-0.1485,-0.1353,-0.15,-0.1501,-0.1502,-0.1503,-0.1504,-0.1504,-0.1505,-0.0699,-0.0706,-0.0806,-0.0938,-0.1098,-0.1259,-0.1291,-0.1388,-0.1415,-0.1412,-0.128,-0.1454,-0.1428,-0.1395,-0.1395,-0.1395,-0.1395,-0.1395,-0.1395,-0.0593,-0.0678,-0.0716,-0.0896,-0.0956,-0.1062,-0.1225,-0.1177,-0.1238,-0.1197,-0.1386,-0.1445,-0.1448,-0.1426,-0.1394,-0.1395,-0.1395,-0.1395,-0.1395,-0.0505,-0.0549,-0.057,-0.0619,-0.0719,-0.0805,-0.0967,-0.0962,-0.0928,-0.0847,-0.1099,-0.1113,-0.1138,-0.115,-0.1118,-0.0994,-0.099,-0.0987,0,-0.0408,-0.044,-0.0409,-0.0404,-0.0415,-0.0616,-0.0515,-0.0549,-0.07,-0.0772,-0.085,-0.1139,-0.1148,-0.1178,-0.1183,-0.1144,0,0,0,-0.0322,-0.0321,-0.0259,-0.0285,-0.0295,-0.0363,-0.0508,-0.0528,-0.0744,-0.0555,-0.0905,-0.0927,-0.0933,-0.1394,-0.1469,-0.1474,-0.1443,0,0]},{"header":{"parameterUnit":"m.s-1","parameterCategory":2,"la1":30.2992,"la2":30.254,"lo1":-89.0895,"lo2":-89.0443,"dy":0.0025,"dx":0.0025,"nx":19,"ny":19,"refTime":"2026-05-10T21:00:00:Z","depth":"4","parameterNumber":3,"parameterNumberName":"V-component_of_CURRENTS"},"data":[0,0,0,-0.0054,-0.0053,-0.0037,-0.0037,0.0015,0.0015,0,0,0,0,0,0,0,0,0,0,0,-0.0021,-0.0019,-0.0054,-0.0053,-0.0037,-0.0037,0.0014,0.0015,0,0,0,0,0,0,0,0,0,0,0,-0.0021,-0.002,-0.0018,-0.0053,-0.0037,-0.0037,0.0014,-0.0006,0,0,0,0,0,0,0,0,0,0,-0.0026,0.0001,-0.002,-0.0018,-0.0053,-0.0037,-0.0037,-0.0008,-0.0005,0.0016,0,0.0054,0,0.0021,0.0019,0.002,0,0,0,-0.0056,-0.0001,-0.0002,-0.0018,-0.0053,-0.0037,-0.0045,-0.0006,-0.0003,0.002,0.0054,0.0054,0.0022,0.002,0.002,0.0047,0.0047,0,0,-0.0056,-0.0021,-0.0003,0.0002,-0.0002,-0.0045,-0.0044,-0.0005,0.0022,0.0054,0.0054,0.0023,0.002,0.0021,0.0048,0.0047,0,0,0,-0.0058,-0.0021,-0.0024,0.0001,-0.0006,-0.0045,-0.0044,0.0021,0.002,0.0055,0.0024,0.0021,0.0021,0.0048,0.0047,0.0007,0,0,0,-0.0058,-0.0023,-0.0023,-0.0003,-0.0006,0.0001,-0.0018,0.0019,0.002,0.0023,0.0021,0.0022,0.0048,0.0048,0.0008,-0.002,0,0,0,-0.003,-0.0022,-0.0006,-0.0001,0.0001,-0.0,0.0001,0.0018,0.0001,0.002,0.0022,0.0048,0.0048,0.001,-0.0017,-0.0029,0,0,0,-0.0017,-0.0021,-0.0003,-0.0031,0.0002,-0.0069,0.0,-0.0011,0.0001,0.0021,0.0048,0.0047,0.001,-0.0016,-0.0028,-0.0069,0,0,0,-0.0042,-0.0022,-0.0054,-0.0041,-0.0131,-0.0074,-0.0139,-0.0063,0.0002,0.0037,0.0038,0.0008,-0.0017,-0.0029,-0.0094,0,0,0,0,-0.0081,-0.0091,-0.0118,-0.0151,-0.0185,-0.0198,-0.0148,-0.0105,-0.0026,0.0009,0.001,-0.0004,-0.001,-0.003,0.0045,0.0045,0.0045,0.0045,0.0046,-0.0081,-0.0135,-0.0203,-0.0258,-0.0284,-0.0273,-0.0257,-0.0177,-0.0099,-0.0051,-0.0035,-0.0071,-0.0093,-0.0026,-0.0027,-0.0027,-0.0027,-0.0027,-0.0027,-0.0167,-0.0225,-0.0264,-0.0342,-0.0355,-0.037,-0.0321,-0.024,-0.0162,-0.0089,-0.0092,-0.0069,-0.0031,-0.003,-0.003,-0.0029,-0.0029,-0.0029,-0.0028,-0.0199,-0.0236,-0.0269,-0.0371,-0.0402,-0.0391,-0.04,-0.0301,-0.019,-0.0182,-0.0156,-0.0099,-0.0097,-0.0146,-0.0146,-0.0146,-0.0146,-0.0146,-0.0146,-0.0213,-0.0263,-0.0316,-0.0405,-0.0434,-0.0444,-0.0413,-0.0393,-0.0284,-0.0216,-0.0163,-0.0111,-0.0107,-0.0104,-0.0149,-0.0149,-0.0148,-0.0148,-0.0148,-0.0272,-0.0262,-0.035,-0.0392,-0.0492,-0.0519,-0.0507,-0.0463,-0.0435,-0.0383,-0.0242,-0.0236,-0.0225,-0.0218,-0.0218,-0.0299,-0.03,-0.0301,0,-0.0272,-0.0293,-0.0365,-0.0446,-0.0535,-0.056,-0.0565,-0.055,-0.0428,-0.0376,-0.0416,-0.0256,-0.0251,-0.0239,-0.0234,-0.0236,0,0,0,-0.029,-0.0299,-0.0348,-0.0438,-0.0544,-0.0548,-0.0559,-0.0536,-0.0416,-0.0466,-0.0319,-0.0314,-0.035,-0.0158,-0.0127,-0.0122,-0.0116,0,0]}]]